Regional Weather Roundup
Issued by NWS

Home | Current Version | Previous Version | Text Only | Print | Product List | Glossary On
Versions: 1 2 3 4 5 6 7 8 9 10 11 12 13 14 15 16 17 18 19 20 21 22 23 24 25 26 27 28 29 30 31 32 33 34 35 36 37 38 39 40 41 42 43 44 45 46 47 48 49 50
026
ASUS43 KMPX 281201
RWRMN
WEATHER ROUNDUP FOR MINNESOTA
NATIONAL WEATHER SERVICE TWIN CITIES/CHANHASSEN MN
700 AM CDT TUE MAR 28 2017


NOTE: "FAIR" INDICATES FEW OR NO CLOUDS BELOW 12,000 FEET WITH NO
SIGNIFICANT WEATHER AND/OR OBSTRUCTIONS TO VISIBILITY. N/A MEANS
CURRENT SKY AND/OR WEATHER CONDITIONS ARE NOT AVAILABLE.

MNZ060>063-068>070-281300-
   Twin Cities Metro

CITY           SKY/WX    TMP DP  RH WIND       PRES   REMARKS
TWIN CITIES    PTCLDY    36  33  89 CALM      30.10R
6HR MIN TEMP:  35; 6HR MAX TEMP:  43;

ST PAUL        CLEAR     33  33 100 CALM      30.11S
CRYSTAL        CLEAR     30  26  85 N3        30.09R
BLAINE         PTCLDY    30  30 100 CALM      30.09S
LAKEVILLE      CLEAR     28  28 100 CALM      30.09S
EDEN PRAIRIE   CLEAR     36  32  85 CALM      30.08S
6HR MIN TEMP:  35; 6HR MAX TEMP:  42;

SOUTH ST PAUL  CLEAR     32  31  98 CALM      30.10S
LAKE ELMO      FAIR      30  30 100 CALM      30.10S
$$
MNZ001>005-007-008-013>017-022>024-027-028-281300-
   Northwest Minnesota

CITY           SKY/WX    TMP DP  RH WIND       PRES   REMARKS
BEMIDJI        PTCLDY    27  25  91 CALM      30.09S
HALLOCK        CLEAR     32  30  93 NW5       30.15R WCI  27
ROSEAU         CLOUDY    32  27  80 N5        30.15R WCI  27
WARROAD        PTCLDY    32  28  86 N3        30.15R
THIEF RVR FALL CLOUDY   N/A N/A N/A NE10      30.13R
CROOKSTON      CLOUDY    32  30  93 CALM      30.13S FOG
FOSSTON        PTCLDY    30  28  93 N3        30.11R
DETROIT LAKES  PTCLDY    32  30  93 CALM      30.10R
MOORHEAD       FOG       30  30 100 NW6       30.14R VSB 1/4 WCI  24
PARK RAPIDS    CLEAR     29  24  82 CALM      30.08R
MAHNOMEN       FAIR      30  29  96 CALM      30.10R
$$
MNZ006-009>011-018-025>026-281300-
   North Central Minnesota

CITY           SKY/WX    TMP DP  RH WIND       PRES   REMARKS
BAUDETTE       MOCLDY    32  27  81 N3        30.13R
FLAG ISLAND    CLOUDY    32  27  80 N5        30.15R WCI  27
INTL FALLS     PTCLDY    35  27  72 NE7       30.11R WCI  29
6HR MIN TEMP:  35; 6HR MAX TEMP:  41;

WASKISH        PTCLDY    30  28  93 CALM      30.11R
BIG FORK       CLEAR     27  25  93 CALM      30.10R
LONGVILLE      CLEAR     25  25 100 CALM      30.10R
GRAND RAPIDS   CLEAR     26  25  96 CALM      30.11R
CRANE LAKE     CLOUDY    25  25 100 CALM      30.13R
ORR            CLEAR     28  25  86 CALM      30.08R
COOK           PTCLDY    27  25  93 CALM      30.10R
WALKER         FAIR      26  23  90 W3        30.09R
$$
MNZ012-019>021-037-281300-
   Northeast Minnesota

CITY           SKY/WX    TMP DP  RH WIND       PRES   REMARKS
DULUTH         CLEAR     26  23  88 CALM      30.09R
6HR MIN TEMP:  24; 6HR MAX TEMP:  31;

ELY            CLOUDY    27  27 100 CALM      30.10R
HIBBING        CLEAR     23  23 100 CALM      30.10R
EVELETH        CLEAR     27  25  94 CALM      30.11R
DULUTH HARBOR  CLEAR     30  28  93 CALM      30.13R
TWO HARBORS    CLEAR     34  28  80 CALM      30.07F
SILVER BAY     MOCLDY    27  27 100 CALM      30.08S
GRAND MARAIS     N/A     31  29  92 CALM      30.12R
G MARAIS ARPRT CLOUDY    30  23  74 CALM      30.09R
$$
MNZ029>031-032-039>041-046>048-054>057-064-281300-
   West Central Minnesota

CITY           SKY/WX    TMP DP  RH WIND       PRES   REMARKS
FERGUS FALLS   CLEAR     30  30 100 N3        30.14R FOG
WHEATON        FOG       28  28 100 NW6       30.13R VSB 1/4 WCI  22
MORRIS         CLEAR     30  28  93 SE3       30.08S
ALEXANDRIA     CLEAR     33  31  92 SE5       30.10R WCI  29
ELBOW LAKE     FAIR      31  31  99 CALM      30.10R
WADENA         CLEAR     27  25  93 CALM      30.09R
GLENWOOD       CLEAR     36  34  93 CALM      30.10R
APPLETON       CLEAR     30  28  93 CALM      30.09S
BENSON         MOCLDY    32  27  80 CALM      30.11R
ORTONVILLE     CLEAR     30  28  93 NW5       30.10R WCI  25
MADISON        CLEAR     36  36 100 NE3       30.09S
WILLMAR        FAIR      37  36  93 CALM      30.11R
$$
MNZ033>034-036-042>043-049>051-058-059-281300-
   Central Minnesota

CITY           SKY/WX    TMP DP  RH WIND       PRES   REMARKS
ST CLOUD       CLEAR     27  27 100 CALM      30.09S
6HR MIN TEMP:  27; 6HR MAX TEMP:  33;

SAUK CENTRE    FAIR      28  27  97 CALM      30.11R
PAYNESVILLE      N/A     27  28 100 CALM      30.10R
AITKIN         CLEAR     25  21  86 CALM      30.08S
PINE RIVER     CLEAR     25  23  93 CALM      30.12S
BRAINERD       CLEAR     25  24  96 CALM      30.09R
STAPLES        CLEAR     27  25  93 CALM      30.10R
LONG PRAIRIE   FAIR      28  28 100 CALM      30.11R
LITTLE FALLS   CLEAR     25  23  93 CALM      30.11R
LITCHFIELD     CLEAR     37  36  93 CALM      30.09S
BUFFALO        CLEAR     31  29  92 CALM      30.10S
MAPLE LAKE     CLEAR     31  30  99 CALM      30.10S FOG
HUTCHINSON     CLEAR     35  34  96 CALM      30.10R
$$
MNZ037-044-045-052-053-281300-
   East Central Minnesota

CITY           SKY/WX    TMP DP  RH WIND       PRES   REMARKS
PRINCETON      CLEAR     28  27  93 CALM      30.10R
MORA           CLEAR     27  27 100 CALM      30.12R
CAMBRIDGE      CLEAR     30  27  86 CALM      30.08S
RUSH CITY      CLEAR     29  27  95 CALM      30.11R
MOOSE LAKE     CLEAR     25  23  93 CALM      30.09R
CLOQUET        PTCLDY    25  23  93 NW3       30.10R
MCGREGOR       PTCLDY    27  25  93 CALM      30.10R
$$
MNZ071>073-080-081-089-090-097-098-281300-
   Southwest Minnesota

CITY           SKY/WX    TMP DP  RH WIND       PRES   REMARKS
MONTEVIDEO     MOCLDY    36  30  80 CALM      30.11S
GRANITE FALLS  CLOUDY    36  33  89 CALM      30.11R
CANBY          CLOUDY    36  34  94 CALM      30.10R
MARSHALL       PTCLDY    34  33  96 W5        30.09R WCI  30
REDWOOD FALLS  MOCLDY    38  32  79 N3        30.09R
OLIVIA         CLEAR     39  34  81 NE5       30.09R
PIPESTONE      CLOUDY    36  32  87 CALM      30.07S FOG
WINDOM         CLEAR     32  30  93 CALM      30.08R FOG
WORTHINGTON    CLEAR     33  32  96 W5        30.09R WCI  29
JACKSON        PTCLDY    34  34 100 CALM      30.08R FOG
TRACY          CLEAR     40  37  89 W6        30.09R
SLAYTON        CLEAR     32  32  99 W6        30.08R FOG     WCI  26
$$
MNZ065>067-074>077-082>085-091>093-281300-
   South Central Minnesota

CITY           SKY/WX    TMP DP  RH WIND       PRES   REMARKS
MANKATO        FOG       33  33 100 SE5       30.09S VSB 1/2 WCI  29
NEW ULM        MOCLDY    34  32  93 CALM      30.09R
ST JAMES       CLEAR     34  34 100 CALM      30.09S FOG
FAIRMONT       CLEAR     32  31  96 CALM      30.09R FOG
GLENCOE        CLEAR     32  32 100 CALM      30.08S
FARIBAULT      FOG       30  28  93 CALM      30.10R VSB 1/4
OWATONNA       CLEAR     30  28  93 E3        30.09S
WASECA         CLEAR     32  32 100 CALM      30.10S
ALBERT LEA     CLOUDY    30  30 100 CALM      30.09R VSB<1/4
$$
MNZ078>079-086>088-094>096-281300-
   Southeast Minnesota

CITY           SKY/WX    TMP DP  RH WIND       PRES   REMARKS
ROCHESTER      PTCLDY    34  34 100 CALM      30.09R FOG
6HR MIN TEMP:  31; 6HR MAX TEMP:  37;

RED WING       FOG       30  28  93 CALM      30.11R VSB 1/4
STANTON        CLEAR     31  29  94 CALM      30.08S
DODGE CENTER   FOG       28  28 100 CALM      30.08F VSB 1/4
WINONA         FOG       32  32 100 NW3       30.13R VSB 1/2
AUSTIN         CLEAR     30  28  93 CALM      30.09R
PRESTON        PTCLDY    34  32  94 CALM      30.09S FOG
$$
ABBREVIATIONS USED IN REMARKS
   TC - TEMPERATURES IN CELSIUS
  WCI - WIND CHILL INDEX
   HX - HEAT INDEX
  VSB - VISIBILITY
$$




USA.gov is the U.S. government's official web portal to all federal, state and local government web resources and services.